Weather History for Montgomery, NY

Change the Weather History Date:

Saturday, March 16, 2013

  Actual Average (KPOU) Record (KPOU)
Temperature  
Mean Temperature 32 °F 37 °F  
Max Temperature 37 °F 48 °F 80 °F (1990)
Min Temperature 28 °F 25 °F 7 °F (1992)
Degree Days  
Heating Degree Days 32 28  
Month to date heating degree days 493  
Since 1 July heating degree days 5064  
Cooling Degree Days 0 0  
Month to date cooling degree days 0  
Year to date cooling degree days 0  
Moisture  
Dew Point 24 °F    
Average Humidity 75    
Maximum Humidity 88    
Minimum Humidity 46    
Precipitation  
Precipitation 0.03 in 0.12 in 1.41 in (1974)
Month to date precipitation 1.76  
Year to date precipitation 7.50  
Sea Level Pressure  
Sea Level Pressure 29.81 in    
Wind  
Wind Speed 4 mph (SW)    
Max Wind Speed 8 mph    
Max Gust Speed -    
Visibility 6 miles    
Events Fog , Snow    
T = Trace of Precipitation, MM = Missing Value Source: NWS Daily Summary

Daily Weather History Graph

Daily Weather History Graph

Search for Another Location

Airport:

Trip Planner

Search our weather history database for the weather conditions in past years. The results will help you decide how hot, cold, wet, or windy it might be!

Date:

Astronomy

Mar. 16, 2013 Rise Set
Actual Time 7:06 AM EDT 7:05 PM EDT
Civil Twilight 6:39 AM EDT 7:32 PM EDT
Nautical Twilight 6:07 AM EDT 8:04 PM EDT
Astronomical Twilight 5:34 AM EDT 8:37 PM EDT
Moon 9:31 AM EDT (3/16) No Moon Set
Length of Visible Light 12h 53m
Length of Day
11h 58m
Waxing Crescent, 23% of the Moon is Illuminated
Mar 16
Waxing Crescent
Mar 19
First Quarter
Mar 27
Full
Apr 3
Last Quarter
Apr 10
New

Hourly Weather History & Observations

Time (EDT) Temp. Windchill Dew Point Humidity Pressure Visibility Wind Dir Wind Speed Gust Speed Precip Events Conditions
12:54 AM 37.0 °F 33.3 °F 21.9 °F 54% 29.78 in 10.0 mi NW 4.6 mph - N/A   Overcast
1:54 AM 36.0 °F 29.6 °F 19.9 °F 52% 29.78 in 10.0 mi NW 8.1 mph - N/A   Scattered Clouds
2:54 AM 34.0 °F 29.8 °F 18.0 °F 52% 29.79 in 10.0 mi WNW 4.6 mph - N/A   Partly Cloudy
3:54 AM 33.1 °F 30.0 °F 19.0 °F 56% 29.80 in 10.0 mi North 3.5 mph - N/A   Mostly Cloudy
4:54 AM 32.0 °F 24.8 °F 17.1 °F 54% 29.81 in 10.0 mi NNW 8.1 mph - N/A   Clear
6:54 AM 28.0 °F 21.7 °F 18.0 °F 66% 29.83 in 10.0 mi NNE 5.8 mph - N/A   Partly Cloudy
7:54 AM 28.9 °F 22.8 °F 18.0 °F 64% 29.86 in 10.0 mi ENE 5.8 mph - N/A   Scattered Clouds
8:54 AM 30.0 °F 23.2 °F 17.1 °F 59% 29.87 in 10.0 mi ENE 6.9 mph - N/A   Overcast
9:54 AM 32.0 °F 26.4 °F 16.0 °F 52% 29.87 in 10.0 mi NE 5.8 mph - N/A   Overcast
10:54 AM 32.0 °F - 16.0 °F 52% 29.86 in 10.0 mi Calm Calm - N/A   Overcast
11:54 AM 34.0 °F - 16.0 °F 48% 29.83 in 10.0 mi Calm Calm - N/A   Overcast
12:54 PM 35.1 °F 32.2 °F 16.0 °F 46% 29.81 in 10.0 mi NE 3.5 mph - N/A   Overcast
1:54 PM 34.0 °F 28.0 °F 21.0 °F 59% 29.82 in 9.0 mi South 6.9 mph - N/A   Overcast
2:21 PM 32.0 °F 25.6 °F 24.8 °F 75% 29.80 in 2.0 mi SW 6.9 mph - 0.00 in Snow Light Snow
2:28 PM 30.2 °F 22.6 °F 24.8 °F 80% 29.81 in 1.5 mi SSW 8.1 mph - 0.00 in Snow Light Snow
2:45 PM 30.2 °F 23.4 °F 26.6 °F 86% 29.80 in 1.5 mi South 6.9 mph - 0.00 in Snow Light Snow
2:54 PM 30.9 °F 24.3 °F 27.0 °F 85% 29.81 in 1.2 mi SSW 6.9 mph - 0.00 in Snow Light Snow
3:10 PM 30.2 °F 24.3 °F 26.6 °F 86% 29.80 in 1.0 mi SSW 5.8 mph - 0.00 in Snow Light Snow
3:20 PM 30.2 °F 24.3 °F 26.6 °F 86% 29.80 in 1.8 mi South 5.8 mph - 0.00 in Snow Light Snow
3:28 PM 30.2 °F 24.3 °F 26.6 °F 86% 29.79 in 2.0 mi SSW 5.8 mph - 0.01 in Snow Light Snow
3:36 PM 30.2 °F 25.4 °F 26.6 °F 86% 29.79 in 4.0 mi SSW 4.6 mph - 0.01 in Snow Light Snow
3:50 PM 30.2 °F 26.7 °F 26.6 °F 86% 29.78 in 5.0 mi SSW 3.5 mph - 0.01 in Snow Light Snow
3:54 PM 30.9 °F 27.5 °F 26.1 °F 82% 29.79 in 5.0 mi SSW 3.5 mph - 0.01 in Snow Light Snow
4:10 PM 30.2 °F - 26.6 °F 86% 29.77 in 2.0 mi Calm Calm - 0.00 in Snow Light Snow
4:15 PM 30.2 °F - 26.6 °F 86% 29.77 in 2.5 mi Calm Calm - 0.00 in Snow Light Snow
4:26 PM 30.2 °F - 26.6 °F 86% 29.77 in 1.0 mi Calm Calm - 0.00 in Snow Light Snow
4:44 PM 30.2 °F 26.7 °F 26.6 °F 86% 29.77 in 2.0 mi South 3.5 mph - 0.00 in Snow Light Snow
4:54 PM 30.9 °F - 26.1 °F 82% 29.79 in 1.5 mi Calm Calm - 0.00 in Snow Light Snow
5:10 PM 30.2 °F - 26.6 °F 86% 29.78 in 2.5 mi Calm Calm - 0.00 in Snow Light Snow
5:15 PM 30.2 °F - 26.6 °F 86% 29.78 in 1.0 mi Calm Calm - 0.01 in Snow Light Snow
5:23 PM 30.2 °F - 26.6 °F 86% 29.78 in 0.5 mi Calm Calm - 0.01 in Fog , Snow Snow
5:32 PM 30.2 °F - 26.6 °F 86% 29.78 in 1.0 mi Calm Calm - 0.01 in Snow Light Snow
5:41 PM 30.2 °F - 26.6 °F 86% 29.79 in 1.8 mi Calm Calm - 0.01 in Snow Light Snow
5:54 PM 30.9 °F - 26.1 °F 82% 29.80 in 2.0 mi Calm Calm - 0.01 in Snow Light Snow
6:04 PM 30.2 °F - 26.6 °F 86% 29.79 in 6.0 mi Calm Calm - 0.00 in Snow Light Snow
6:54 PM 30.9 °F - 26.1 °F 82% 29.81 in 5.0 mi Calm Calm - 0.01 in Snow Light Snow
7:54 PM 30.9 °F - 27.0 °F 85% 29.83 in 6.0 mi Calm Calm - 0.00 in Snow Light Snow
8:54 PM 30.9 °F - 26.1 °F 82% 29.85 in 10.0 mi Calm Calm - 0.00 in   Overcast
9:54 PM 30.0 °F - 27.0 °F 88% 29.86 in 10.0 mi Calm Calm - N/A   Overcast
10:54 PM 30.0 °F 26.5 °F 27.0 °F 88% 29.88 in 10.0 mi SSW 3.5 mph - N/A   Overcast
11:54 PM 30.0 °F - 27.0 °F 88% 29.91 in 9.0 mi Calm Calm - N/A   Mostly Cloudy